[[{"header":{"parameterUnit":"m.s-1","parameterCategory":1,"la1":30.2991,"la2":30.254,"lo1":-89.0895,"lo2":-89.0444,"dy":0.0017,"dx":0.0017,"nx":28,"ny":28,"refTime":"2025-02-08T03:00:00:Z","depth":0,"parameterNumber":2,"parameterNumberName":"U-component_of_WINDS"},"data":[0,0,0,0,0,0,0,0,0,0,0,0,0,0,0,0,0,0,0,0,0,0,0,0,0,0,0,0,0,0,0,0,0,0,0,0,0,0,0,0,0,0,0,0,0,0,0,0,0,0,0,0,0,0,0,0,0,0,0.7396,0.7396,0,0.7406,0.7406,0.7406,0.7379,0.7378,0.7378,0.7377,0.739,0.7391,0.7392,0,0,0,0,0,0,0,0,0,0,0,0,0,0.7356,0.7357,0.7396,0.7396,0.7396,0.7406,0.7406,0.7406,0.7379,0.7378,0.7377,0.7376,0.7389,0.7391,0.7392,0,0,0,0,0,0,0,0,0,0,0,0,0,0.7371,0.7357,0.7396,0.7384,0.7383,0.7406,0.7406,0.7406,0.738,0.7378,0.7377,0.7376,0.7389,0.739,0.7392,0.7428,0,0,0.7397,0.7398,0,0,0,0,0,0,0,0,0.737,0.7372,0.7386,0.7385,0.7384,0.739,0.7397,0.7413,0.738,0.7381,0.7377,0.7375,0.7391,0.7392,0.7397,0.7428,0.7429,0.7397,0.7398,0.7399,0.74,0,0,0,0,0,0,0,0.7369,0.7372,0.74,0.7386,0.7385,0.7379,0.7379,0.74,0.7393,0.7381,0.7379,0.738,0.739,0.7395,0.7397,0.7429,0.7397,0.7399,0.74,0.7401,0.7489,0.7491,0,0,0,0,0,0,0.7369,0.7371,0.74,0.74,0.7373,0.7381,0.7381,0.7389,0.7393,0.7392,0.7381,0.7379,0.7393,0.7395,0.7397,0.7439,0.7399,0.7401,0.7402,0.7488,0.749,0.7491,0,0,0,0,0,0,0.7368,0.7372,0.7399,0.7385,0.7388,0.7383,0.7392,0.739,0.7395,0.7393,0.7392,0.7388,0.7392,0.7395,0.742,0.7439,0.7401,0.7403,0.7486,0.7489,0.749,0.7522,0,0,0,0,0,0,0.7367,0.7372,0.7385,0.7385,0.7389,0.7421,0.7393,0.7391,0.7398,0.7395,0.7399,0.7398,0.7392,0.7418,0.7422,0.7441,0.7404,0.7485,0.7487,0.749,0.752,0.7525,0.753,0,0,0,0,0,0.7366,0.7394,0.7386,0.7389,0.7405,0.7422,0.7424,0.7415,0.74,0.7413,0.7411,0.7398,0.7436,0.742,0.7425,0.7445,0.7484,0.7487,0.749,0.7517,0.7524,0.753,0,0,0,0,0,0,0.7397,0.7394,0.7385,0.7414,0.7418,0.7418,0.7434,0.7423,0.7433,0.743,0.7419,0.742,0.7447,0.7448,0.7431,0.7479,0.7457,0.7461,0.7477,0.7483,0.7489,0.7488,0.7406,0,0,0,0,0,0.7407,0.742,0.7418,0.7444,0.7446,0.744,0.7447,0.7439,0.7444,0.7446,0.7447,0.7452,0.7465,0.7475,0.7487,0.752,0.752,0.7535,0.7541,0.7545,0.7549,0.7566,0.7572,0.7501,0.7501,0.7501,0,0,0.7428,0.7428,0.7438,0.745,0.7452,0.7467,0.7442,0.7459,0.747,0.7449,0.7472,0.7473,0.7479,0.7507,0.752,0.7509,0.7568,0.7549,0.7552,0.7554,0.757,0.7576,0.7582,0.7503,0.7503,0.7503,0,0,0.7474,0.7476,0.7497,0.75,0.7504,0.7499,0.7505,0.7506,0.7505,0.7527,0.7512,0.7526,0.7549,0.7553,0.7559,0.7606,0.7594,0.761,0.7638,0.7654,0.766,0.7665,0.7682,0.7688,0.7614,0.7614,0.7614,0,0.75,0.7521,0.751,0.7527,0.7533,0.7514,0.7536,0.754,0.7548,0.7553,0.754,0.7568,0.7571,0.76,0.7612,0.7617,0.7623,0.761,0.766,0.7665,0.7669,0.7685,0.7691,0.7616,0.7616,0.7615,0.7615,0,0.7553,0.7567,0.7584,0.7591,0.7599,0.7619,0.7611,0.762,0.7612,0.7609,0.7633,0.7635,0.7647,0.7654,0.7646,0.7682,0.7675,0.7662,0.764,0.7678,0.7693,0.7699,0.7619,0.7618,0.7617,0.7617,0,0,0.7618,0.7618,0.7625,0.7628,0.7631,0.7642,0.7661,0.7672,0.768,0.7686,0.7702,0.7722,0.7709,0.7715,0.7708,0.7723,0.776,0.7707,0.7707,0.7717,0.7799,0.7809,0.7816,0.7752,0.7753,0.7754,0.7798,0,0.7663,0.7695,0.7685,0.7717,0.773,0.7713,0.7729,0.7733,0.7731,0.7742,0.774,0.7754,0.7736,0.774,0.7754,0.7752,0.7776,0.7749,0.7767,0.7767,0.7765,0.7824,0.7834,0.7876,0.7804,0.7805,0.7806,0,0.772,0.7727,0.776,0.776,0.7766,0.778,0.7789,0.78,0.7805,0.7802,0.7808,0.7798,0.7817,0.7795,0.7822,0.7803,0.781,0.7811,0.7812,0.7813,0.7789,0.7826,0.789,0.7896,0.7815,0.7814,0.7813,0,0.7764,0.7782,0.7804,0.7807,0.7808,0.7819,0.782,0.7823,0.783,0.7838,0.7842,0.7853,0.7858,0.7867,0.786,0.7845,0.7888,0.7865,0.7886,0.7887,0.7896,0.7896,0.7961,0.7901,0.7901,0.7901,0.7901,0,0.7815,0.7836,0.7824,0.7837,0.786,0.7849,0.7872,0.7871,0.7874,0.7888,0.7873,0.7886,0.7877,0.7889,0.7884,0.7906,0.7909,0.7908,0.7906,0.7909,0.7909,0.7913,0.791,0.7903,0.7902,0.7902,0.7902,0,0.7868,0.7861,0.7883,0.7882,0.7882,0.7899,0.7898,0.7911,0.7907,0.7924,0.7928,0.7923,0.7937,0.7931,0.7946,0.7942,0.7971,0.7966,0.7969,0.7968,0.7989,0.7987,0.8059,0.8068,0.8003,0.8003,0.8004,0,0.79,0.7916,0.7916,0.7923,0.7925,0.7937,0.7944,0.7934,0.7942,0.7947,0.7959,0.7972,0.7981,0.8004,0.8002,0.8014,0.8008,0.8033,0.801,0.8012,0.8008,0.8007,0.8009,0.8038,0.8038,0.8039,0.8039,0,0.7959,0.7954,0.7964,0.7973,0.7981,0.7987,0.7993,0.8,0.799,0.7999,0.8013,0.802,0.8035,0.8047,0.8057,0.8059,0.8048,0.8047,0.8052,0.8055,0.8056,0.8055,0.7981,0.8045,0.8044,0.8044,0.8044,0.8044,0.8002,0.8015,0.8017,0.8028,0.8031,0.8036,0.8048,0.8045,0.8056,0.8066,0.806,0.8076,0.808,0.8092,0.8095,0.8108,0.8098,0.8106,0.8108,0.811,0.8113,0.8054,0.811,0.811,0.8109,0.8109,0.8109,0,0.8059,0.8059,0.807,0.8077,0.8086,0.8074,0.8079,0.8088,0.8102,0.8106,0.8115,0.8131,0.8143,0.8142,0.8153,0.8163,0.8158,0.8166,0.8165,0.8166,0.8121,0.8115,0.817,0.817,0.817,0.817,0.817,0.817,0.809,0.8111,0.8106,0.8129,0.8129,0.8143,0.8147,0.8152,0.8155,0.8173,0.8183,0.8182,0.8184,0.8195,0.8206,0.8205,0.821,0.822,0.8218,0.8175,0.8169,0.8163,0.8158,0.8221,0.8221,0.8262,0.8262,0.8262]},{"header":{"parameterUnit":"m.s-1","parameterCategory":1,"la1":30.2991,"la2":30.254,"lo1":-89.0895,"lo2":-89.0444,"dy":0.0017,"dx":0.0017,"nx":28,"ny":28,"refTime":"2025-02-08T03:00:00:Z","depth":0,"parameterNumber":3,"parameterNumberName":"V-component_of_WINDS"},"data":[0,0,0,0,0,0,0,0,0,0,0,0,0,0,0,0,0,0,0,0,0,0,0,0,0,0,0,0,0,0,0,0,0,0,0,0,0,0,0,0,0,0,0,0,0,0,0,0,0,0,0,0,0,0,0,0,0,0,2.6066,2.6068,0,2.6239,2.6241,2.6243,2.6292,2.6291,2.629,2.6289,2.6471,2.6476,2.6482,0,0,0,0,0,0,0,0,0,0,0,0,0,2.5786,2.579,2.6066,2.6068,2.6071,2.6238,2.6241,2.6243,2.6292,2.6291,2.629,2.6289,2.6469,2.6476,2.6482,0,0,0,0,0,0,0,0,0,0,0,0,0,2.5928,2.5792,2.6066,2.6115,2.6121,2.6238,2.6241,2.6244,2.6293,2.6291,2.629,2.6288,2.6467,2.6475,2.6483,2.6565,0,0,2.651,2.6513,0,0,0,0,0,0,0,0,2.592,2.5938,2.6106,2.6112,2.6119,2.6242,2.6208,2.6352,2.6293,2.6228,2.6289,2.6288,2.6396,2.6411,2.6446,2.6573,2.6581,2.651,2.6516,2.6519,2.6522,0,0,0,0,0,0,0,2.591,2.5931,2.6135,2.6108,2.6116,2.6131,2.6149,2.6236,2.6318,2.6233,2.6237,2.6257,2.64,2.6438,2.6451,2.6584,2.651,2.6518,2.6523,2.6526,2.679,2.6791,0,0,0,0,0,0,2.5891,2.5922,2.6129,2.614,2.6014,2.6137,2.6158,2.6204,2.6317,2.6333,2.6258,2.6258,2.6424,2.6441,2.6457,2.6563,2.6519,2.6527,2.6532,2.6788,2.679,2.6792,0,0,0,0,0,0,2.5884,2.5909,2.6122,2.6032,2.6061,2.6143,2.6195,2.6208,2.6247,2.6336,2.6351,2.6281,2.6423,2.6445,2.6538,2.6569,2.6531,2.6539,2.6786,2.6789,2.6791,2.6772,0,0,0,0,0,0,2.5876,2.5906,2.5936,2.6032,2.6065,2.6198,2.6197,2.6213,2.6261,2.6263,2.6362,2.6377,2.6424,2.6525,2.6547,2.6581,2.6546,2.6783,2.6787,2.679,2.677,2.6773,2.6776,0,0,0,0,0,2.5866,2.5925,2.5938,2.5962,2.6104,2.62,2.6219,2.627,2.6263,2.6295,2.6353,2.6374,2.6562,2.6534,2.6559,2.6596,2.6782,2.6786,2.679,2.6768,2.6773,2.6776,0,0,0,0,0,0,2.5832,2.5938,2.5954,2.6045,2.6113,2.6208,2.625,2.6273,2.6346,2.6345,2.6408,2.643,2.6519,2.6566,2.6533,2.6682,2.6673,2.6682,2.6648,2.6653,2.6656,2.6643,2.6553,0,0,0,0,0,2.5834,2.5901,2.5991,2.6063,2.6096,2.6167,2.6211,2.6244,2.6318,2.6348,2.6412,2.6484,2.656,2.6609,2.6683,2.6776,2.68,2.6814,2.6817,2.682,2.6828,2.6884,2.6892,2.6806,2.6806,2.6806,0,0,2.5841,2.5907,2.5946,2.6058,2.6114,2.6184,2.6191,2.6264,2.6318,2.6359,2.6451,2.6501,2.6586,2.668,2.6725,2.6722,2.6856,2.6825,2.6826,2.6833,2.6889,2.6897,2.6904,2.6809,2.6808,2.6808,0,0,2.589,2.5945,2.6012,2.6069,2.6154,2.6201,2.6217,2.631,2.6344,2.6437,2.647,2.6535,2.6663,2.6723,2.677,2.6843,2.6866,2.6865,2.6883,2.6937,2.6944,2.695,2.6979,2.6988,2.6873,2.6873,2.6873,0,2.5888,2.5993,2.6044,2.6117,2.6166,2.6205,2.6275,2.6328,2.6434,2.6468,2.6463,2.6627,2.6686,2.6796,2.6814,2.685,2.6873,2.6855,2.6938,2.6945,2.6952,2.698,2.699,2.6872,2.6872,2.6872,2.6872,0,2.5988,2.6061,2.6105,2.6205,2.6259,2.633,2.6394,2.6443,2.6472,2.652,2.6616,2.6689,2.678,2.6808,2.6837,2.6923,2.6919,2.6925,2.6918,2.6959,2.6986,2.6997,2.6871,2.6872,2.6872,2.6872,0,0,2.6021,2.6149,2.6164,2.6211,2.6308,2.6367,2.644,2.6527,2.657,2.6641,2.6706,2.6814,2.6821,2.6875,2.6912,2.6958,2.7014,2.696,2.6963,2.6969,2.7117,2.7113,2.7124,2.7029,2.7031,2.7033,2.711,0,2.6084,2.6215,2.6264,2.6372,2.6441,2.648,2.6544,2.6612,2.6659,2.6726,2.6779,2.6856,2.6858,2.6891,2.6938,2.6997,2.7045,2.6992,2.7093,2.7096,2.7073,2.7138,2.7134,2.7204,2.7121,2.7123,2.7124,0,2.6175,2.6247,2.6362,2.6452,2.6483,2.654,2.6625,2.6688,2.6767,2.6798,2.6858,2.6892,2.6973,2.6958,2.7072,2.7035,2.7079,2.7114,2.7118,2.7132,2.7114,2.7156,2.7227,2.7238,2.7141,2.714,2.7139,0,2.6191,2.6316,2.6402,2.644,2.6547,2.6586,2.6633,2.671,2.676,2.6835,2.6869,2.6953,2.6999,2.7065,2.7121,2.7105,2.7231,2.722,2.7262,2.7261,2.7289,2.7286,2.737,2.7312,2.7312,2.7312,2.7312,0,2.6258,2.6327,2.641,2.6463,2.6543,2.6599,2.6677,2.6727,2.6795,2.686,2.6898,2.6959,2.7029,2.7099,2.7144,2.7233,2.7253,2.7283,2.7294,2.7281,2.7277,2.7313,2.731,2.7315,2.7314,2.7314,2.7313,0,2.6289,2.6347,2.6444,2.6537,2.6562,2.6617,2.6698,2.6752,2.68,2.6882,2.6905,2.6982,2.7067,2.7129,2.7239,2.7269,2.7366,2.7376,2.7339,2.7345,2.7384,2.738,2.7495,2.7514,2.7441,2.7441,2.7442,0,2.6329,2.6383,2.6482,2.6527,2.6574,2.6646,2.6698,2.6755,2.6808,2.6902,2.6946,2.7033,2.7106,2.724,2.7308,2.7392,2.7407,2.7441,2.742,2.7406,2.7411,2.7408,2.7415,2.7445,2.7445,2.7446,2.7446,0,2.6394,2.6421,2.6492,2.6574,2.6634,2.6702,2.6771,2.6806,2.6877,2.6934,2.702,2.7077,2.7189,2.7276,2.7368,2.7419,2.7446,2.7452,2.7467,2.7455,2.7432,2.7448,2.735,2.745,2.7449,2.7449,2.7449,2.7449,2.6434,2.6484,2.6562,2.6641,2.6698,2.6762,2.6818,2.6873,2.6946,2.7041,2.7071,2.7161,2.7241,2.7367,2.7419,2.7492,2.7491,2.7512,2.7517,2.7522,2.7523,2.7418,2.7508,2.7508,2.7508,2.7508,2.7508,0,2.6504,2.6555,2.6627,2.6722,2.6784,2.6801,2.6879,2.6931,2.7009,2.708,2.7151,2.7252,2.7337,2.7411,2.75,2.7545,2.7559,2.7566,2.7565,2.7577,2.7517,2.7497,2.7553,2.7553,2.7553,2.7553,2.7553,2.7553,2.6547,2.6635,2.6671,2.6788,2.684,2.6928,2.6971,2.7031,2.7088,2.7198,2.7269,2.7315,2.7389,2.7484,2.7563,2.7583,2.7616,2.762,2.7643,2.7586,2.7581,2.7576,2.7557,2.7626,2.7626,2.7698,2.7699,2.7699]}]]